User: anonymous   Login
Location: Unspecified
(0.0000°N, 0.0000°E)
Time: 06:18:14
(UTC+00:00)
Language:

AO-73 - Orbit

View from above orbital plane
View from above orbital plane
View from above satellite
View from above satellite

Ground track
Ground track

The orbit data is extracted from the following two-line orbital elements,

1 39444U 13066AE  17119.91355639 +.00000454 +00000-0 +62714-4 0  9997
2 39444 097.6362 165.4758 0059944 065.6189 295.1265 14.81405177183876
Epoch (UTC): 29 April 2017 21:55:31
Eccentricity: 0.0059944
inclination: 97.6362°
perigee height: 583 km
apogee height: 667 km
right ascension of ascending node: 165.4758°
argument of perigee: 65.6189°
revolutions per day: 14.81405177
mean anomaly at epoch: 295.1265°
orbit number at epoch: 18387

The dashed part of the orbit path shows where the satellite is in the earth's shadow,  

DLR